Location: Unspecified
(64.9000°N, 0.0000°E)
Time: 22:55:59
(UTC+00:00)

Transit 2A Rocket - Pass Details

Date: 24 June 2019
Orbit: 588 x 915 km, 66.7° (Epoch: 20 July)

Event Time Altitude Azimuth Distance (km) Brightness Sun altitude
Rises 15:58:02 0° 294° (WNW) 3,457 9.0 34.1°
Reaches altitude 10° 16:00:36 10° 294° (WNW) 2,478 8.4 33.9°
Maximum altitude 16:06:19 80° 209° (SSW) 812 5.9 33.3°
Drops below altitude 10° 16:11:31 10° 122° (ESE) 2,253 7.2 32.7°
Sets 16:13:46 0° 122° (ESE) 3,122 7.8 32.5°
